Regional Weather Roundup
Issued by NWS

Home | Current Version | Previous Version | Graphics & Text | Print | Product List | Glossary On
Versions: 1 2 3 4 5 6 7 8 9 10 11 12 13 14 15 16 17 18 19 20 21 22 23 24 25 26 27 28 29 30 31 32 33 34 35 36 37 38 39 40 41 42 43 44 45 46 47 48 49 50
000
ASUS43 KFSD 230410
RWRSD

WEATHER ROUNDUP FOR SOUTH DAKOTA
NATIONAL WEATHER SERVICE SIOUX FALLS SD
1100 PM CDT SUN APR 22 2018

NOTE: "FAIR" INDICATES FEW OR NO CLOUDS BELOW 12,000 FEET WITH NO
SIGNIFICANT WEATHER AND/OR OBSTRUCTIONS TO VISIBILITY.


SDZ001>005-009-010-012>017-230500-
NORTHWEST AND NORTH CENTRAL SOUTH DAKOTA

CITY           SKY/WX    TMP DP  RH WIND       PRES   REMARKS
BUFFALO          N/A     52  34  50 NE7       30.04R
FAITH            N/A     49  41  74 SE13      30.10S
MOBRIDGE       CLEAR     48  39  71 SE8       30.11S
$$

SDZ012>016-024>037-041>051-057-063-072>074-230500-
SOUTHWEST AND SOUTH CENTRAL SOUTH DAKOTA

CITY           SKY/WX    TMP DP  RH WIND       PRES   REMARKS
RAPID CTY ARPT CLEAR     46  38  73 E6        30.09S
PIERRE         CLEAR     47  39  74 SE8       30.14R
CUSTER         CLEAR     43  31  62 CALM      30.15R
ELLSWORTH AFB  CLEAR    N/A N/A N/A SE8       30.10S
PHILIP         CLEAR     51  39  63 VRB6      30.11R
PINE RIDGE     CLEAR     52  39  61 S15       30.11R
SPEARFISH      FAIR      46  37  71 SE5       30.10S
WINNER         FAIR      47  37  68 SE9       30.17R
$$

SDZ004>011-016>023-039-040-230500-
NORTHEAST SOUTH DAKOTA

CITY           SKY/WX    TMP DP  RH WIND       PRES   REMARKS
ABERDEEN       CLEAR     40  34  79 SE9       30.18S
WATERTOWN      CLEAR     45  37  73 SE7       30.20S
BROOKINGS      CLEAR     44  37  76 SE7       30.22F
SISSETON         N/A     44  37  76 S9        30.20S
$$

SDZ017-020-022-023-036>040-048>070-230500-
SOUTHEAST SOUTH DAKOTA

CITY           SKY/WX    TMP DP  RH WIND       PRES   REMARKS
SIOUX FALLS    CLEAR     45  38  76 E6        30.21F
HURON          CLEAR     46  38  73 SE9       30.19R
CHAMBERLAIN    CLEAR     48  41  77 SE5       30.17S
MITCHELL       CLEAR     47  40  76 SE6       30.20R
YANKTON        CLEAR     48  40  73 E6        30.20S
$$

ABBREVIATIONS USED IN REMARKS
   TC - TEMPERATURE IN CELSIUS
  WCI - WIND CHILL INDEX
   HX - HEAT INDEX
  VSB - VISIBILITY





USA.gov is the U.S. government's official web portal to all federal, state and local government web resources and services.